QPF
0.03 0.02 0.03 0.03 0.04 0.05 0.02 0.01 0.01 0.00 0.00 0.01 0.01 0.01 0.01 0.01 0.01 0.01 0.01 0.02 0.01 0.02 0.03 0.04 0.04 0.04 0.03 0.02 0.01 0.01 0.02 0.02 0.02 0.02 0.02 0.02 0.02 0.02 0.02 0.02 0.01 0.02 0.02
0.04 0.04 0.03 0.03 0.04 0.03 0.01 0.01 0.01 0.00 0.00 0.00 0.00 0.00 0.00 0.00 0.01 0.01 0.01 0.01 0.01 0.02 0.02 0.02 0.03 0.04 0.04 0.03 0.02 0.01 0.02 0.02 0.02 0.03 0.03 0.03 0.03 0.02 0.02 0.02 0.01 0.01 0.01
0.03 0.05 0.03 0.03 0.04 0.03 0.02 0.02 0.01 0.00 0.00 0.00 0.00 0.00 0.00 0.00 0.00 0.00 0.01 0.01 0.01 0.02 0.02 0.02 0.02 0.03 0.03 0.02 0.02 0.02 0.02 0.02 0.02 0.03 0.03 0.03 0.02 0.03 0.02 0.02 0.02 0.02 0.01
0.04 0.04 0.03 0.03 0.03 0.03 0.04 0.05 0.03 0.01 0.00 0.00 0.00 0.00 0.00 0.00 0.00 0.00 0.00 0.01 0.01 0.01 0.01 0.01 0.01 0.01 0.02 0.02 0.02 0.02 0.02 0.02 0.02 0.02 0.03 0.03 0.03 0.03 0.03 0.03 0.03 0.02 0.02
0.03 0.02 0.02 0.02 0.03 0.04 0.05 0.06 0.06 0.04 0.03 0.02 0.01 0.00 0.00 0.00 0.01 0.01 0.01 0.01 0.01 0.01 0.01 0.01 0.01 0.01 0.02 0.02 0.02 0.02 0.02 0.02 0.03 0.03 0.03 0.03 0.03 0.03 0.03 0.03 0.03 0.03 0.02
0.03 0.03 0.02 0.02 0.03 0.04 0.06 0.08 0.09 0.07 0.05 0.04 0.04 0.03 0.02 0.01 0.01 0.01 0.01 0.01 0.01 0.01 0.01 0.01 0.01 0.02 0.03 0.02 0.02 0.03 0.03 0.03 0.03 0.03 0.04 0.04 0.04 0.04 0.04 0.04 0.03 0.02 0.03
0.04 0.03 0.03 0.03 0.04 0.05 0.05 0.06 0.08 0.08 0.06 0.04 0.04 0.03 0.02 0.02 0.01 0.01 0.01 0.01 0.01 0.01 0.01 0.01 0.01 0.01 0.02 0.02 0.02 0.02 0.02 0.03 0.03 0.04 0.05 0.05 0.05 0.05 0.05 0.04 0.04 0.04 0.03
0.04 0.04 0.04 0.04 0.04 0.05 0.07 0.06 0.06 0.05 0.05 0.04 0.03 0.03 0.03 0.03 0.02 0.02 0.02 0.02 0.02 0.02 0.02 0.01 0.02 0.01 0.01 0.01 0.02 0.02 0.02 0.02 0.03 0.03 0.04 0.05 0.05 0.05 0.05 0.04 0.04 0.04 0.04
0.03 0.03 0.03 0.04 0.05 0.06 0.07 0.06 0.07 0.07 0.06 0.06 0.05 0.04 0.03 0.03 0.02 0.02 0.01 0.01 0.01 0.01 0.01 0.02 0.01 0.01 0.01 0.01 0.01 0.02 0.02 0.02 0.03 0.03 0.03 0.04 0.05 0.05 0.05 0.05 0.05 0.05 0.05
0.02 0.02 0.03 0.04 0.04 0.05 0.07 0.08 0.07 0.06 0.05 0.05 0.05 0.04 0.03 0.02 0.02 0.02 0.01 0.01 0.01 0.01 0.01 0.01 0.01 0.01 0.01 0.01 0.01 0.01 0.02 0.02 0.02 0.03 0.03 0.03 0.03 0.04 0.05 0.05 0.05 0.05 0.05
0.01 0.01 0.02 0.03 0.04 0.04 0.04 0.05 0.06 0.04 0.04 0.03 0.03 0.03 0.02 0.02 0.02 0.01 0.01 0.01 0.01 0.01 0.02 0.02 0.02 0.02 0.02 0.02 0.01 0.01 0.01 0.02 0.02 0.02 0.02 0.02 0.03 0.03 0.03 0.04 0.05 0.05 0.05
0.00 0.00 0.01 0.01 0.02 0.03 0.03 0.04 0.05 0.04 0.03 0.03 0.02 0.02 0.02 0.01 0.01 0.01 0.01 0.01 0.02 0.02 0.02 0.02 0.02 0.02 0.02 0.02 0.01 0.01 0.01 0.01 0.01 0.02 0.02 0.02 0.02 0.02 0.03 0.04 0.04 0.05 0.05
0.02 0.01 0.01 0.01 0.01 0.01 0.02 0.02 0.03 0.04 0.03 0.02 0.02 0.02 0.02 0.02 0.02 0.02 0.03 0.02 0.02 0.03 0.03 0.03 0.03 0.02 0.01 0.01 0.01 0.01 0.01 0.01 0.01 0.01 0.01 0.01 0.01 0.01 0.02 0.03 0.04 0.04 0.05
0.02 0.01 0.01 0.01 0.01 0.02 0.02 0.02 0.03 0.04 0.04 0.03 0.03 0.03 0.04 0.04 0.04 0.04 0.04 0.03 0.03 0.03 0.03 0.03 0.02 0.01 0.01 0.01 0.01 0.01 0.01 0.00 0.00 0.00 0.00 0.01 0.01 0.01 0.01 0.02 0.03 0.04 0.05
0.03 0.02 0.01 0.01 0.01 0.01 0.02 0.02 0.03 0.05 0.06 0.05 0.04 0.05 0.05 0.05 0.04 0.04 0.04 0.04 0.03 0.03 0.03 0.03 0.02 0.01 0.01 0.00 0.00 0.00 0.00 0.00 0.00 0.00 0.00 0.00 0.01 0.01 0.01 0.02 0.03 0.03 0.04
0.04 0.05 0.04 0.03 0.03 0.03 0.02 0.03 0.04 0.06 0.07 0.07 0.06 0.07 0.07 0.07 0.06 0.06 0.05 0.04 0.03 0.02 0.02 0.02 0.02 0.01 0.01 0.01 0.00 0.00 0.00 0.00 0.00 0.00 0.00 0.00 0.00 0.01 0.01 0.02 0.02 0.03 0.04
0.02 0.03 0.05 0.05 0.05 0.05 0.04 0.04 0.04 0.05 0.08 0.09 0.09 0.08 0.07 0.07 0.06 0.05 0.04 0.04 0.03 0.02 0.02 0.01 0.00 0.00 0.00 0.00 0.00 0.00 0.00 0.00 0.00 0.01 0.00 0.00 0.01 0.01 0.01 0.01 0.02 0.03 0.03
0.02 0.02 0.03 0.03 0.04 0.04 0.04 0.05 0.05 0.05 0.06 0.07 0.07 0.08 0.08 0.07 0.06 0.05 0.03 0.02 0.02 0.01 0.01 0.01 0.00 0.00 0.00 0.00 0.00 0.01 0.01 0.01 0.01 0.01 0.01 0.01 0.01 0.01 0.01 0.01 0.02 0.02 0.02
0.01 0.01 0.01 0.02 0.02 0.03 0.03 0.04 0.05 0.05 0.05 0.05 0.05 0.05 0.05 0.05 0.05 0.03 0.02 0.01 0.01 0.01 0.01 0.01 0.01 0.00 0.00 0.00 0.00 0.01 0.01 0.01 0.01 0.02 0.02 0.02 0.02 0.02 0.01 0.01 0.02 0.01 0.02
0.01 0.01 0.01 0.01 0.01 0.02 0.02 0.03 0.03 0.04 0.04 0.04 0.04 0.03 0.03 0.03 0.02 0.01 0.01 0.00 0.00 0.01 0.01 0.01 0.01 0.01 0.00 0.00 0.01 0.01 0.01 0.01 0.01 0.02 0.02 0.02 0.02 0.02 0.02 0.01 0.01 0.01 0.01
0.01 0.00 0.00 0.00 0.00 0.01 0.01 0.02 0.02 0.03 0.03 0.03 0.03 0.02 0.02 0.01 0.01 0.00 0.00 0.00 0.01 0.01 0.01 0.01 0.01 0.01 0.01 0.01 0.01 0.01 0.01 0.01 0.01 0.01 0.02 0.02 0.02 0.02 0.02 0.01 0.01 0.01 0.01
0.01 0.01 0.01 0.01 0.00 0.01 0.01 0.02 0.02 0.03 0.03 0.02 0.02 0.01 0.00 0.00 0.00 0.00 0.00 0.00 0.01 0.01 0.01 0.01 0.01 0.01 0.01 0.01 0.01 0.01 0.01 0.01 0.01 0.01 0.02 0.02 0.02 0.02 0.02 0.01 0.01 0.01 0.01
0.01 0.01 0.01 0.01 0.01 0.01 0.02 0.02 0.02 0.02 0.02 0.01 0.01 0.00 0.00 0.00 0.00 0.00 0.00 0.00 0.00 0.00 0.00 0.01 0.01 0.01 0.01 0.01 0.01 0.02 0.02 0.02 0.02 0.02 0.03 0.03 0.03 0.02 0.02 0.01 0.01 0.01 0.01
0.01 0.02 0.01 0.01 0.01 0.02 0.02 0.02 0.01 0.01 0.00 0.00 0.00 0.00 0.00 0.00 0.00 0.00 0.00 0.00 0.00 0.00 0.00 0.01 0.01 0.01 0.01 0.01 0.02 0.02 0.03 0.03 0.04 0.04 0.03 0.03 0.02 0.02 0.02 0.01 0.01 0.01 0.01
0.02 0.02 0.01 0.01 0.01 0.01 0.01 0.01 0.00 0.00 0.00 0.00 0.00 0.00 0.00 0.00 0.00 0.00 0.00 0.00 0.00 0.00 0.01 0.01 0.01 0.01 0.01 0.01 0.01 0.02 0.03 0.04 0.03 0.03 0.02 0.01 0.01 0.01 0.01 0.01 0.01 0.01 0.01
0.01 0.01 0.01 0.01 0.01 0.00 0.00 0.00 0.00 0.00 0.00 0.00 0.00 0.00 0.00 0.00 0.00 0.00 0.01 0.00 0.00 0.00 0.01 0.01 0.01 0.02 0.03 0.02 0.02 0.02 0.02 0.03 0.03 0.03 0.02 0.01 0.01 0.02 0.02 0.02 0.01 0.01 0.01
MSLP
1032.73 1032.57 1032.34 1032.05 1031.73 1031.42 1031.12 1030.85 1030.61 1030.40 1030.20 1030.02 1029.85 1029.69 1029.56 1029.46 1029.37 1029.28 1029.18 1029.03 1028.81 1028.51 1028.13 1027.68 1027.19 1026.71 1026.27 1025.90 1025.61 1025.42 1025.30 1025.22 1025.15 1025.06 1024.92 1024.72 1024.46 1024.14 1023.78 1023.40 1023.02 1022.64 1022.27
1032.79 1032.64 1032.41 1032.14 1031.86 1031.59 1031.35 1031.13 1030.94 1030.75 1030.57 1030.38 1030.20 1030.04 1029.90 1029.80 1029.73 1029.69 1029.64 1029.56 1029.41 1029.18 1028.85 1028.44 1027.97 1027.47 1027.00 1026.58 1026.23 1025.96 1025.77 1025.63 1025.52 1025.40 1025.25 1025.04 1024.78 1024.47 1024.11 1023.72 1023.31 1022.90 1022.49
1032.69 1032.55 1032.35 1032.13 1031.91 1031.71 1031.54 1031.39 1031.25 1031.11 1030.94 1030.76 1030.57 1030.39 1030.24 1030.13 1030.07 1030.04 1030.03 1029.99 1029.90 1029.73 1029.47 1029.11 1028.68 1028.21 1027.73 1027.28 1026.89 1026.56 1026.29 1026.08 1025.90 1025.72 1025.53 1025.30 1025.03 1024.72 1024.36 1023.97 1023.55 1023.12 1022.69
1032.49 1032.38 1032.23 1032.07 1031.94 1031.83 1031.75 1031.68 1031.60 1031.49 1031.35 1031.18 1030.98 1030.78 1030.60 1030.47 1030.39 1030.35 1030.34 1030.32 1030.26 1030.14 1029.93 1029.64 1029.26 1028.84 1028.39 1027.95 1027.53 1027.16 1026.83 1026.54 1026.27 1026.02 1025.77 1025.50 1025.20 1024.88 1024.52 1024.13 1023.72 1023.29 1022.85
1032.24 1032.17 1032.09 1032.02 1031.99 1031.98 1031.98 1031.99 1031.97 1031.90 1031.78 1031.60 1031.40 1031.18 1030.98 1030.82 1030.70 1030.63 1030.59 1030.56 1030.50 1030.40 1030.23 1029.99 1029.69 1029.33 1028.94 1028.53 1028.12 1027.72 1027.34 1026.98 1026.63 1026.29 1025.96 1025.63 1025.30 1024.95 1024.59 1024.21 1023.81 1023.39 1022.94
1031.98 1031.96 1031.96 1031.99 1032.05 1032.13 1032.22 1032.29 1032.31 1032.28 1032.17 1032.01 1031.80 1031.58 1031.36 1031.17 1031.02 1030.90 1030.82 1030.74 1030.66 1030.54 1030.39 1030.19 1029.95 1029.66 1029.34 1028.99 1028.62 1028.22 1027.81 1027.39 1026.96 1026.53 1026.12 1025.72 1025.33 1024.95 1024.58 1024.20 1023.81 1023.40 1022.96
1031.71 1031.75 1031.83 1031.94 1032.09 1032.26 1032.41 1032.52 1032.58 1032.57 1032.48 1032.33 1032.14 1031.93 1031.72 1031.52 1031.34 1031.18 1031.04 1030.91 1030.77 1030.62 1030.46 1030.28 1030.09 1029.87 1029.62 1029.34 1029.01 1028.64 1028.22 1027.75 1027.26 1026.75 1026.26 1025.78 1025.33 1024.91 1024.51 1024.13 1023.74 1023.33 1022.90
1031.39 1031.49 1031.64 1031.84 1032.06 1032.29 1032.48 1032.63 1032.71 1032.71 1032.65 1032.53 1032.38 1032.20 1032.03 1031.85 1031.67 1031.49 1031.30 1031.11 1030.91 1030.70 1030.51 1030.32 1030.15 1029.98 1029.79 1029.57 1029.30 1028.96 1028.55 1028.07 1027.53 1026.95 1026.38 1025.83 1025.32 1024.85 1024.42 1024.01 1023.61 1023.20 1022.76
1030.98 1031.14 1031.36 1031.63 1031.91 1032.17 1032.40 1032.56 1032.64 1032.66 1032.63 1032.56 1032.47 1032.37 1032.26 1032.14 1031.99 1031.82 1031.60 1031.36 1031.09 1030.82 1030.57 1030.36 1030.18 1030.03 1029.89 1029.72 1029.50 1029.19 1028.80 1028.31 1027.74 1027.13 1026.50 1025.89 1025.32 1024.80 1024.33 1023.88 1023.46 1023.02 1022.56
1030.43 1030.66 1030.94 1031.26 1031.59 1031.88 1032.12 1032.29 1032.38 1032.42 1032.43 1032.42 1032.41 1032.40 1032.39 1032.36 1032.28 1032.14 1031.92 1031.65 1031.33 1031.00 1030.68 1030.42 1030.21 1030.05 1029.92 1029.78 1029.59 1029.32 1028.95 1028.47 1027.89 1027.26 1026.59 1025.94 1025.33 1024.76 1024.24 1023.76 1023.29 1022.82 1022.33
1029.74 1030.02 1030.36 1030.74 1031.10 1031.42 1031.67 1031.84 1031.95 1032.01 1032.06 1032.12 1032.21 1032.31 1032.41 1032.48 1032.49 1032.41 1032.22 1031.93 1031.58 1031.20 1030.82 1030.50 1030.24 1030.05 1029.90 1029.76 1029.59 1029.34 1028.98 1028.51 1027.94 1027.31 1026.63 1025.96 1025.32 1024.72 1024.17 1023.64 1023.13 1022.61 1022.08
1028.91 1029.24 1029.64 1030.06 1030.47 1030.81 1031.08 1031.26 1031.39 1031.48 1031.57 1031.70 1031.87 1032.08 1032.29 1032.47 1032.58 1032.57 1032.42 1032.15 1031.79 1031.37 1030.95 1030.57 1030.25 1030.01 1029.83 1029.66 1029.48 1029.22 1028.88 1028.42 1027.87 1027.25 1026.59 1025.92 1025.27 1024.66 1024.08 1023.52 1022.97 1022.40 1021.82
1027.98 1028.36 1028.81 1029.27 1029.72 1030.10 1030.39 1030.60 1030.74 1030.86 1031.00 1031.18 1031.42 1031.71 1032.02 1032.30 1032.49 1032.55 1032.46 1032.23 1031.88 1031.45 1031.00 1030.58 1030.21 1029.92 1029.69 1029.48 1029.26 1028.99 1028.64 1028.19 1027.66 1027.06 1026.42 1025.78 1025.14 1024.54 1023.94 1023.37 1022.78 1022.18 1021.56
1026.99 1027.41 1027.90 1028.41 1028.89 1029.31 1029.64 1029.87 1030.05 1030.19 1030.36 1030.58 1030.87 1031.21 1031.58 1031.92 1032.18 1032.31 1032.28 1032.10 1031.78 1031.38 1030.93 1030.49 1030.09 1029.75 1029.47 1029.21 1028.94 1028.64 1028.27 1027.83 1027.31 1026.74 1026.13 1025.52 1024.92 1024.32 1023.74 1023.16 1022.56 1021.93 1021.28
1025.99 1026.43 1026.94 1027.49 1028.02 1028.47 1028.84 1029.11 1029.31 1029.49 1029.67 1029.91 1030.21 1030.57 1030.96 1031.34 1031.64 1031.82 1031.86 1031.73 1031.47 1031.11 1030.69 1030.27 1029.86 1029.50 1029.17 1028.87 1028.56 1028.22 1027.82 1027.37 1026.86 1026.30 1025.73 1025.15 1024.58 1024.01 1023.45 1022.87 1022.27 1021.63 1020.96
1025.01 1025.45 1025.98 1026.55 1027.10 1027.60 1028.00 1028.30 1028.54 1028.73 1028.92 1029.16 1029.45 1029.80 1030.19 1030.56 1030.88 1031.10 1031.19 1031.13 1030.94 1030.65 1030.29 1029.91 1029.53 1029.16 1028.82 1028.48 1028.13 1027.75 1027.32 1026.85 1026.34 1025.80 1025.24 1024.69 1024.15 1023.61 1023.06 1022.49 1021.89 1021.25 1020.58
1024.07 1024.49 1025.02 1025.58 1026.15 1026.67 1027.10 1027.44 1027.70 1027.90 1028.10 1028.32 1028.59 1028.91 1029.27 1029.62 1029.94 1030.18 1030.31 1030.32 1030.21 1030.01 1029.74 1029.43 1029.10 1028.76 1028.42 1028.07 1027.69 1027.28 1026.83 1026.33 1025.81 1025.26 1024.72 1024.18 1023.65 1023.12 1022.59 1022.03 1021.43 1020.79 1020.12
1023.17 1023.55 1024.05 1024.60 1025.16 1025.68 1026.14 1026.50 1026.78 1027.00 1027.20 1027.41 1027.65 1027.94 1028.26 1028.58 1028.89 1029.14 1029.30 1029.38 1029.35 1029.24 1029.07 1028.84 1028.58 1028.30 1027.99 1027.64 1027.26 1026.83 1026.36 1025.85 1025.30 1024.75 1024.20 1023.66 1023.12 1022.59 1022.05 1021.48 1020.88 1020.24 1019.57
1022.29 1022.63 1023.08 1023.60 1024.14 1024.65 1025.10 1025.48 1025.78 1026.01 1026.22 1026.43 1026.65 1026.91 1027.20 1027.50 1027.79 1028.04 1028.23 1028.36 1028.41 1028.39 1028.30 1028.17 1027.99 1027.78 1027.51 1027.20 1026.83 1026.40 1025.93 1025.40 1024.85 1024.29 1023.72 1023.15 1022.60 1022.04 1021.47 1020.88 1020.26 1019.61 1018.93
1021.44 1021.73 1022.13 1022.59 1023.09 1023.58 1024.02 1024.39 1024.70 1024.96 1025.18 1025.40 1025.62 1025.87 1026.14 1026.42 1026.69 1026.94 1027.15 1027.32 1027.42 1027.47 1027.47 1027.42 1027.33 1027.18 1026.97 1026.70 1026.37 1025.97 1025.51 1024.99 1024.44 1023.87 1023.28 1022.69 1022.09 1021.49 1020.87 1020.24 1019.58 1018.90 1018.20
1020.62 1020.86 1021.20 1021.61 1022.05 1022.49 1022.90 1023.27 1023.59 1023.86 1024.10 1024.34 1024.58 1024.83 1025.09 1025.36 1025.63 1025.88 1026.10 1026.28 1026.42 1026.52 1026.57 1026.59 1026.56 1026.47 1026.34 1026.13 1025.85 1025.49 1025.07 1024.58 1024.05 1023.47 1022.87 1022.25 1021.61 1020.95 1020.28 1019.58 1018.86 1018.13 1017.40
1019.83 1020.03 1020.31 1020.66 1021.04 1021.43 1021.80 1022.14 1022.46 1022.74 1023.01 1023.26 1023.53 1023.80 1024.07 1024.34 1024.61 1024.85 1025.06 1025.24 1025.39 1025.51 1025.60 1025.65 1025.67 1025.65 1025.57 1025.43 1025.22 1024.93 1024.57 1024.13 1023.63 1023.07 1022.47 1021.83 1021.15 1020.44 1019.70 1018.93 1018.14 1017.34 1016.56
1019.08 1019.25 1019.49 1019.77 1020.09 1020.41 1020.73 1021.04 1021.34 1021.62 1021.91 1022.19 1022.48 1022.78 1023.06 1023.34 1023.60 1023.82 1024.02 1024.18 1024.32 1024.44 1024.53 1024.61 1024.66 1024.69 1024.67 1024.60 1024.46 1024.26 1023.97 1023.60 1023.16 1022.64 1022.06 1021.41 1020.71 1019.95 1019.15 1018.30 1017.44 1016.57 1015.73
1018.39 1018.54 1018.74 1018.97 1019.22 1019.47 1019.73 1019.99 1020.26 1020.53 1020.82 1021.12 1021.43 1021.74 1022.04 1022.32 1022.56 1022.77 1022.94 1023.08 1023.19 1023.29 1023.37 1023.46 1023.54 1023.60 1023.64 1023.64 1023.59 1023.47 1023.27 1022.99 1022.62 1022.16 1021.61 1020.98 1020.27 1019.49 1018.64 1017.73 1016.80 1015.86 1014.95
1017.76 1017.90 1018.06 1018.24 1018.42 1018.61 1018.80 1019.00 1019.22 1019.46 1019.74 1020.04 1020.35 1020.67 1020.97 1021.24 1021.47 1021.66 1021.80 1021.90 1021.99 1022.06 1022.14 1022.23 1022.33 1022.43 1022.53 1022.60 1022.62 1022.59 1022.49 1022.30 1022.01 1021.62 1021.13 1020.54 1019.84 1019.05 1018.17 1017.23 1016.25 1015.25 1014.27
1017.19 1017.32 1017.45 1017.58 1017.70 1017.81 1017.93 1018.06 1018.23 1018.43 1018.67 1018.95 1019.25 1019.55 1019.84 1020.09 1020.30 1020.46 1020.57 1020.66 1020.72 1020.78 1020.86 1020.96 1021.09 1021.23 1021.38 1021.52 1021.62 1021.68 1021.66 1021.56 1021.36 1021.04 1020.61 1020.07 1019.41 1018.63 1017.75 1016.80 1015.78 1014.74 1013.71
Thickness
5591 5590 5589 5589 5589 5588 5587 5586 5585 5583 5581 5580 5578 5576 5574 5572 5570 5569 5567 5566 5565 5565 5564 5563 5561 5559 5557 5556 5554 5553 5552 5550 5548 5547 5546 5546 5545 5544 5544 5543 5543 5543 5543
5584 5583 5582 5582 5581 5581 5580 5578 5577 5575 5573 5571 5569 5567 5565 5563 5561 5559 5557 5556 5554 5553 5552 5551 5550 5548 5546 5545 5543 5542 5541 5539 5538 5536 5535 5534 5533 5533 5532 5532 5532 5532 5532
5576 5575 5574 5574 5573 5572 5571 5570 5568 5566 5564 5562 5560 5558 5556 5554 5551 5549 5547 5544 5543 5541 5540 5538 5537 5536 5535 5533 5532 5531 5529 5528 5526 5525 5524 5523 5522 5521 5521 5520 5521 5520 5521
5569 5568 5567 5566 5565 5564 5563 5562 5561 5558 5555 5552 5550 5547 5545 5543 5541 5538 5536 5533 5531 5529 5527 5526 5524 5523 5522 5521 5520 5519 5517 5516 5514 5513 5512 5511 5510 5509 5509 5509 5509 5509 5509
5561 5560 5559 5558 5557 5556 5555 5553 5551 5549 5545 5543 5540 5537 5535 5533 5530 5528 5525 5522 5520 5517 5515 5513 5511 5510 5509 5508 5507 5506 5504 5503 5501 5500 5500 5499 5498 5497 5497 5497 5497 5497 5497
5553 5552 5551 5550 5549 5547 5546 5544 5542 5539 5536 5534 5531 5527 5525 5522 5520 5517 5514 5511 5508 5506 5503 5500 5498 5496 5494 5493 5492 5491 5490 5490 5488 5487 5486 5486 5485 5485 5485 5485 5485 5485 5485
5545 5544 5542 5541 5539 5538 5537 5535 5532 5528 5525 5523 5520 5516 5514 5512 5510 5507 5503 5499 5496 5493 5490 5488 5485 5482 5480 5479 5477 5476 5475 5475 5474 5473 5472 5472 5471 5471 5471 5471 5471 5472 5472
5536 5535 5534 5532 5531 5529 5527 5525 5523 5519 5515 5513 5510 5506 5502 5501 5499 5496 5492 5488 5484 5481 5478 5475 5472 5469 5467 5465 5463 5461 5460 5459 5459 5458 5457 5456 5457 5457 5457 5456 5457 5457 5458
5528 5527 5525 5524 5522 5520 5518 5516 5514 5512 5508 5503 5501 5497 5493 5490 5485 5484 5480 5476 5473 5469 5466 5462 5459 5457 5454 5452 5449 5448 5446 5444 5444 5443 5442 5442 5441 5442 5442 5442 5442 5442 5443
5519 5518 5517 5515 5513 5511 5510 5508 5505 5502 5499 5495 5490 5487 5484 5480 5474 5471 5468 5465 5461 5457 5453 5450 5447 5444 5441 5439 5436 5434 5432 5430 5429 5428 5427 5427 5427 5427 5427 5427 5427 5427 5428
5511 5509 5508 5507 5505 5503 5501 5499 5496 5493 5490 5486 5481 5477 5472 5468 5463 5458 5457 5453 5448 5445 5441 5438 5435 5432 5429 5426 5424 5422 5419 5417 5415 5414 5414 5413 5413 5413 5413 5413 5412 5413 5413
5504 5502 5501 5499 5498 5495 5493 5490 5487 5484 5481 5477 5472 5468 5463 5458 5453 5448 5445 5441 5438 5435 5431 5428 5424 5421 5417 5414 5412 5409 5407 5405 5403 5402 5401 5400 5400 5399 5399 5399 5399 5398 5399
5496 5495 5494 5492 5490 5488 5485 5482 5478 5475 5472 5467 5462 5458 5454 5450 5445 5440 5435 5431 5428 5425 5422 5419 5415 5411 5407 5404 5401 5398 5396 5393 5391 5390 5389 5388 5387 5386 5386 5386 5385 5385 5385
5491 5490 5488 5485 5482 5480 5477 5473 5469 5466 5462 5457 5453 5449 5444 5440 5435 5431 5426 5421 5418 5416 5412 5409 5406 5401 5397 5393 5390 5387 5385 5382 5380 5378 5377 5376 5375 5374 5373 5373 5372 5372 5371
5485 5483 5481 5478 5475 5471 5468 5464 5460 5456 5452 5448 5444 5440 5435 5430 5426 5421 5416 5412 5407 5405 5405 5401 5396 5392 5387 5383 5380 5376 5374 5371 5369 5367 5365 5364 5363 5361 5360 5360 5359 5358 5358
5478 5475 5473 5471 5467 5464 5459 5456 5452 5448 5443 5439 5435 5431 5426 5421 5416 5411 5407 5402 5398 5395 5393 5392 5386 5382 5378 5373 5369 5366 5363 5360 5358 5356 5353 5351 5350 5348 5347 5347 5345 5344 5343
5471 5468 5465 5462 5459 5455 5452 5447 5443 5439 5435 5431 5426 5422 5417 5412 5407 5403 5398 5393 5389 5385 5382 5382 5377 5372 5368 5364 5360 5356 5353 5349 5347 5344 5342 5339 5337 5336 5335 5333 5332 5331 5330
5464 5461 5458 5454 5451 5447 5443 5439 5435 5431 5427 5422 5418 5413 5408 5403 5399 5394 5389 5384 5380 5375 5371 5370 5367 5361 5357 5353 5349 5346 5342 5338 5335 5332 5330 5328 5326 5324 5323 5321 5319 5318 5317
5457 5453 5450 5446 5442 5439 5435 5431 5427 5422 5418 5414 5409 5404 5399 5394 5389 5384 5380 5375 5371 5366 5360 5357 5355 5351 5346 5342 5338 5335 5331 5327 5324 5321 5319 5317 5315 5313 5311 5309 5307 5306 5304
5450 5446 5443 5439 5435 5431 5427 5423 5418 5414 5409 5404 5400 5395 5390 5386 5381 5376 5371 5366 5361 5356 5351 5346 5343 5340 5335 5330 5325 5322 5320 5317 5313 5311 5309 5306 5303 5301 5298 5296 5295 5293 5291
5442 5438 5434 5431 5427 5423 5419 5414 5410 5406 5401 5396 5391 5386 5381 5376 5372 5367 5362 5357 5352 5346 5341 5336 5332 5328 5324 5319 5314 5310 5307 5306 5303 5300 5298 5295 5292 5290 5287 5284 5281 5279 5278
5434 5430 5426 5422 5418 5415 5411 5407 5402 5397 5392 5387 5382 5377 5372 5367 5363 5358 5352 5347 5342 5336 5331 5326 5321 5317 5314 5308 5303 5299 5294 5292 5293 5291 5285 5285 5280 5278 5275 5273 5270 5268 5266
5426 5422 5418 5414 5410 5406 5402 5398 5393 5388 5383 5378 5373 5368 5363 5359 5353 5348 5343 5337 5331 5325 5320 5315 5310 5306 5302 5298 5292 5289 5284 5280 5279 5277 5271 5274 5271 5268 5266 5263 5259 5257 5254
5418 5414 5410 5405 5401 5397 5393 5389 5384 5379 5374 5369 5363 5358 5353 5349 5344 5338 5333 5328 5322 5317 5311 5304 5299 5295 5290 5286 5281 5277 5273 5270 5268 5264 5258 5258 5260 5258 5257 5253 5249 5246 5243
5410 5406 5401 5396 5392 5388 5384 5380 5375 5369 5364 5360 5354 5349 5344 5340 5336 5330 5324 5318 5314 5308 5302 5295 5290 5285 5280 5275 5270 5265 5259 5255 5255 5255 5248 5244 5247 5246 5247 5245 5241 5236 5233
5402 5397 5392 5388 5383 5379 5375 5371 5366 5360 5356 5351 5346 5341 5335 5331 5326 5320 5314 5308 5303 5299 5292 5287 5281 5276 5270 5265 5259 5253 5247 5242 5239 5239 5239 5231 5231 5226 5231 5237 5231 5225 5221